AMC-6 (GE-6)

Last updated on Feb. 20, 2020, 4:40 a.m. UTC

1 26580U 00067A   20050.52086823 -.00000233  00000-0  00000-0 0  9994
2 26580   0.0564 293.5223 0002435  35.1891 284.6905  1.00270705 70806
UTC
Height (km)
Latitude
Longitude
Inclination
Orbital Period
UTC large
Height (km)
Speed (km/s)
/
Latitude / Longitude
Inclination (degrees)
Orbital Period (minutes)
Azimuth
Elevation
Range (km)
Doppler Factor
iOS Compass Heading
iOS Angle

Next 30 passes for location: Hong Kong

Rise time Rise Azimuth (degrees) Set time Set Azimuth (degrees) Duration Max altitude (degrees)

No matching passes for this satellites